Wetbulb
73.90 74.90 75.69 73.80 64.50 64.25 56.38 57.28 61.72 60.80 59.58 62.17 64.06 63.41 62.62 64.55 62.04 58.19 72.10 73.44 73.57 73.31 73.87 74.84 77.43 77.24 76.96 77.35 77.09 77.23 76.89 76.89 76.75 77.16 77.45 78.12 77.96 78.28 78.31 78.28 78.57 78.58 78.42 77.97 77.17 77.11 77.13 77.05 76.85
75.08 75.93 75.09 67.67 61.01 55.55 56.12 60.16 59.82 62.02 63.02 62.59 62.78 63.89 63.44 62.52 67.64 69.17 70.40 73.38 73.94 73.28 73.74 73.96 77.17 77.79 77.55 77.38 77.83 77.62 77.79 76.93 77.00 77.29 77.55 78.27 78.14 78.17 78.28 78.18 78.28 78.42 78.24 77.77 77.17 76.92 76.86 76.91 76.82
75.46 76.86 69.01 61.85 59.56 55.63 56.67 61.19 61.02 64.04 64.43 64.54 63.58 65.39 64.78 64.19 68.26 69.55 72.63 73.20 73.96 73.87 74.61 74.68 77.58 77.73 77.32 78.33 77.68 77.83 77.40 77.34 76.89 76.95 77.09 78.27 78.39 78.18 78.09 78.02 78.37 78.62 78.45 78.03 77.28 77.03 76.75 76.41 76.36
74.79 70.38 68.22 58.09 57.47 60.03 60.50 63.14 64.33 63.48 65.03 65.90 65.72 62.85 66.29 69.56 69.17 71.44 73.32 72.58 72.06 73.60 75.82 77.49 78.00 77.82 77.03 77.77 78.83 78.31 77.82 77.73 77.87 77.22 77.87 77.85 78.40 78.55 78.18 77.71 78.01 78.26 77.97 77.77 77.47 77.36 76.72 76.30 76.54
68.72 67.40 57.46 56.50 58.63 61.48 63.65 61.84 61.28 63.53 63.43 65.02 66.41 63.40 64.55 69.63 71.37 72.15 73.00 72.25 71.71 74.35 75.51 76.76 78.11 78.20 77.61 77.84 78.71 78.41 78.30 78.36 78.22 78.24 77.56 77.96 78.18 77.21 77.61 77.05 77.27 77.30 77.17 77.14 77.33 77.28 76.83 76.17 76.83
63.02 64.67 60.11 57.75 59.50 62.00 63.10 64.97 64.76 64.20 64.55 63.21 60.58 64.22 65.71 70.67 70.38 71.50 72.22 72.87 73.32 73.72 75.09 76.40 78.26 78.75 78.28 78.10 78.38 78.44 77.99 78.10 77.95 77.83 77.53 77.80 78.12 78.08 77.92 77.73 77.23 76.31 76.75 76.78 77.27 77.13 76.80 76.03 76.05
65.82 59.86 60.23 58.84 56.65 59.32 61.25 64.94 63.23 63.28 63.04 63.15 60.29 61.16 66.41 68.43 70.74 72.10 73.01 73.98 74.26 73.00 74.39 75.89 76.53 77.57 78.14 78.71 78.52 78.53 78.63 78.50 78.78 78.43 77.75 77.94 77.60 77.75 77.23 77.62 77.03 76.86 76.83 76.95 76.58 76.55 76.63 76.30 75.83
65.48 64.61 59.62 59.23 57.90 58.15 61.76 62.77 64.06 63.05 61.92 68.00 65.55 65.03 64.49 68.23 70.73 71.63 72.40 74.37 73.36 74.12 73.84 74.47 75.85 76.00 76.50 76.84 78.85 78.75 78.48 78.80 78.09 77.81 77.56 77.18 77.05 77.00 76.98 78.02 77.18 76.69 76.80 76.33 76.82 76.36 76.22 76.95 76.45
66.61 61.19 58.57 58.40 59.12 59.80 62.70 60.77 63.44 64.59 62.56 65.08 67.44 70.57 69.94 69.91 70.39 69.94 70.26 71.26 72.99 74.55 74.51 74.70 74.72 76.33 76.94 76.85 77.25 78.44 78.33 78.18 77.66 77.32 77.01 76.89 75.78 75.86 76.35 77.07 77.19 77.06 76.35 76.60 76.79 76.14 76.76 77.26 76.32
62.63 59.46 58.91 61.81 62.03 61.14 62.05 61.55 61.46 61.38 61.59 62.57 68.06 71.39 70.07 69.49 69.27 68.25 68.72 69.31 70.97 72.63 73.44 74.87 75.35 74.96 75.76 75.39 77.03 76.45 76.39 75.24 76.70 76.39 76.61 76.12 75.37 76.09 76.00 76.97 76.84 76.74 76.74 76.76 76.54 76.40 76.61 76.55 74.19
62.97 58.96 60.81 61.29 62.18 62.14 60.50 61.34 62.83 60.93 59.98 61.63 66.07 69.89 68.83 68.65 69.19 68.49 68.42 69.84 71.05 73.22 73.38 74.37 75.89 76.00 75.58 75.48 75.75 75.47 75.48 75.73 76.25 77.69 76.87 76.58 75.56 75.53 76.84 75.60 75.76 75.65 76.60 75.75 75.85 75.54 74.67 74.60 74.57
59.36 61.89 61.52 61.19 60.77 58.99 57.97 59.68 58.94 60.72 61.02 62.65 65.72 71.69 69.81 68.42 68.30 68.33 68.71 69.66 70.84 71.80 73.39 74.25 76.38 75.48 76.02 76.64 75.48 75.06 75.03 75.30 75.43 76.02 77.31 77.87 75.87 75.23 75.70 75.80 75.22 75.65 75.47 74.79 74.65 74.10 73.63 73.12 73.55
58.89 60.24 60.51 59.87 59.49 59.20 58.84 57.49 57.66 58.51 61.00 62.81 63.93 71.45 70.75 69.42 69.68 70.38 70.11 70.65 71.29 71.74 73.34 75.16 76.82 76.00 76.03 77.51 76.25 75.58 75.49 75.13 75.31 75.68 76.16 76.74 76.18 76.01 76.25 75.55 77.09 74.60 75.23 74.53 74.79 74.99 73.04 75.39 74.56
60.29 59.56 58.21 59.20 58.45 58.55 56.92 57.23 58.26 59.48 60.48 60.62 61.19 67.55 70.92 70.87 70.91 71.39 71.13 70.93 71.43 72.43 73.14 74.95 76.82 77.34 77.30 76.50 78.10 78.54 77.47 76.22 75.45 76.45 76.36 76.21 76.46 77.02 76.25 75.24 75.61 75.91 74.08 75.12 75.48 74.28 74.99 74.78 73.98
60.00 55.84 58.00 57.79 57.53 56.62 57.91 55.91 56.05 58.46 59.93 59.97 60.73 63.33 69.80 71.81 72.70 72.61 73.16 72.53 72.74 73.04 73.67 74.42 76.45 77.37 78.56 79.42 79.36 77.98 79.21 76.87 76.25 74.38 77.14 76.31 75.78 75.86 75.48 75.35 75.05 75.04 75.63 74.22 74.47 75.37 75.94 74.27 75.04
56.56 56.96 53.75 57.17 56.89 57.54 56.80 53.73 57.29 59.30 58.83 58.37 59.87 62.51 65.80 70.91 72.04 73.94 75.13 74.98 74.17 73.63 73.91 75.70 75.42 76.43 77.22 78.63 78.29 77.32 76.72 76.09 74.69 77.62 76.73 76.82 77.44 76.65 75.46 74.38 75.20 74.49 74.54 72.07 74.16 74.33 73.78 73.37 73.40
56.77 51.87 53.06 54.34 57.80 55.96 55.92 54.13 58.01 59.97 58.84 58.77 59.82 61.18 64.54 67.79 71.96 74.58 75.09 75.32 74.52 75.43 75.64 76.36 76.74 76.26 76.36 78.14 77.22 77.93 77.03 76.71 76.52 76.25 77.39 77.45 77.31 77.40 76.51 75.12 75.08 76.76 75.03 72.57 72.08 73.80 74.28 73.17 73.60
52.17 51.98 53.00 52.71 55.78 55.59 54.78 55.13 57.89 58.89 60.10 61.74 62.38 62.83 64.76 67.65 68.82 73.65 74.57 75.61 75.68 76.92 77.08 77.93 77.38 77.98 77.72 77.73 77.60 76.25 76.32 76.61 76.14 76.65 76.11 77.49 76.71 76.83 77.21 75.89 75.91 76.30 75.53 73.20 73.44 72.71 73.63 72.46 72.62
53.91 52.72 52.31 54.46 56.01 54.38 54.67 54.70 57.17 58.99 60.62 61.33 62.53 64.11 65.51 66.91 71.30 74.05 74.50 75.59 75.88 76.17 76.74 77.76 77.45 78.44 77.05 76.36 74.94 74.81 73.70 74.64 74.60 76.08 78.37 77.56 77.42 77.54 77.54 74.42 75.61 77.50 75.35 75.25 76.34 75.91 74.48 73.84 74.77
53.69 52.65 52.95 54.80 55.89 54.55 54.59 54.03 57.21 58.87 59.55 61.49 62.11 64.79 66.22 68.32 72.30 73.32 74.29 75.03 75.59 75.71 76.60 77.35 78.01 78.21 76.86 76.67 76.53 76.09 75.28 75.13 74.96 75.34 77.39 77.56 77.42 76.89 76.39 75.71 74.64 74.88 74.69 75.46 76.05 75.25 73.89 74.51 73.85
53.97 52.72 53.42 53.01 55.13 55.77 54.50 53.34 55.76 58.54 60.42 61.88 63.57 65.59 67.64 69.31 70.55 72.12 73.12 74.46 74.83 74.81 76.13 77.10 77.93 78.53 77.78 78.17 77.56 77.41 77.78 76.91 75.05 75.09 74.28 75.63 76.80 76.28 76.47 76.75 75.75 76.53 74.52 74.18 75.69 75.63 74.38 72.56 73.85
52.60 56.06 54.44 53.03 52.05 49.21 55.41 48.71 55.68 56.93 58.27 60.46 62.84 64.27 65.41 67.46 70.18 71.82 73.03 74.22 74.12 74.97 76.97 78.25 77.84 78.16 78.73 78.33 77.33 75.86 74.46 74.15 74.61 75.51 75.27 75.24 75.27 76.11 75.76 75.27 75.63 75.28 76.53 74.22 75.21 75.63 75.25 74.43 71.90
53.98 56.16 54.88 54.06 52.38 52.09 52.31 50.17 54.20 57.30 56.13 57.74 61.51 63.31 64.88 67.24 67.52 68.63 70.67 72.31 73.26 74.64 76.40 77.85 79.25 78.80 78.40 78.10 77.02 77.01 75.32 75.30 75.34 73.54 77.97 77.91 75.01 75.28 76.03 75.85 76.04 74.48 74.64 75.99 74.74 75.03 74.53 74.47 73.27
56.45 54.71 54.94 54.87 53.39 48.70 52.42 51.37 52.12 54.82 56.95 58.79 61.29 62.60 63.90 65.41 67.98 69.03 70.30 71.51 71.92 71.81 72.15 73.88 78.71 78.06 78.95 78.68 78.07 77.02 76.94 75.28 73.63 72.83 74.59 74.60 76.06 75.55 76.16 76.09 75.55 75.49 75.32 74.39 75.50 75.75 75.30 74.38 74.66
55.91 53.24 48.54 47.70 47.90 47.53 54.50 51.76 54.44 57.86 59.66 60.48 60.80 61.95 63.41 64.66 67.00 68.72 69.11 69.94 70.89 71.09 71.76 72.57 76.41 77.65 79.05 78.80 78.57 78.58 77.61 77.11 76.31 75.67 75.63 73.75 70.72 73.28 75.21 75.92 75.65 75.40 75.49 76.03 75.19 75.80 75.92 76.03 74.73
54.96 53.13 48.16 43.78 45.19 47.93 52.98 48.89 54.29 59.86 61.28 61.68 61.77 61.79 62.44 63.51 64.87 65.55 67.34 68.98 69.37 69.55 71.07 72.87 75.15 75.78 76.67 76.59 78.08 78.35 78.06 77.53 76.89 76.14 75.55 75.54 73.35 70.74 71.91 75.75 75.19 75.55 76.21 76.12 76.54 75.54 76.35 76.28 75.90
53.52 51.49 55.01 50.76 51.27 47.50 50.00 54.54 58.11 59.38 59.69 60.31 60.19 61.21 62.19 63.76 64.73 65.43 66.04 67.82 69.30 70.18 71.54 71.84 75.07 75.63 76.06 76.14 77.08 78.00 77.96 78.22 76.85 77.30 77.37 76.15 75.66 72.25 71.18 71.27 75.58 75.30 75.44 76.12 76.38 75.72 75.80 76.23 75.71
54.31 55.63 49.54 50.59 45.71 44.60 48.91 50.07 51.99 56.75 57.81 59.52 59.29 60.16 62.04 63.05 62.88 64.90 66.34 68.54 69.66 70.33 72.04 72.61 73.23 75.02 75.38 75.03 76.19 75.67 77.19 77.93 78.31 78.12 77.14 76.68 76.08 75.88 76.37 74.37 76.47 75.92 75.84 76.21 76.60 76.03 76.18 76.01 76.11
53.15 52.79 53.94 53.12 51.64 46.16 44.46 49.02 58.77 57.26 58.57 58.66 59.05 59.63 61.43 62.68 63.92 65.08 66.27 67.95 69.75 69.25 70.46 72.03 72.31 74.28 74.51 74.98 74.77 75.88 75.89 76.21 77.30 77.05 77.84 77.19 77.08 76.68 75.71 75.77 75.39 76.20 76.14 76.88 76.23 76.49 76.29 75.53 75.67
56.22 54.21 53.65 48.36 48.00 50.95 49.79 49.54 57.62 58.55 58.53 58.41 58.64 60.67 61.66 63.71 64.68 65.71 66.78 67.62 68.30 69.68 70.08 70.22 72.40 72.43 73.83 74.67 74.73 73.85 74.34 74.42 74.62 75.37 76.19 76.66 76.48 76.70 76.38 76.46 75.14 74.20 74.60 76.51 76.48 75.63 76.02 75.56 75.48
MSLP
1007.49 1006.32 1005.66 1004.42 1003.52 1001.75 999.01 998.31 997.98 997.93 998.32 998.78 999.28 1000.00 1001.37 1002.11 1003.29 1005.64 1007.37 1008.01 1009.14 1010.51 1011.64 1012.12 1012.66 1013.14 1013.46 1013.61 1013.96 1014.19 1014.51 1014.77 1015.10 1015.25 1015.43 1015.60 1016.11 1016.36 1016.40 1016.57 1016.70 1016.87 1016.98 1017.22 1017.43 1017.41 1017.56 1017.76 1017.94
1006.63 1005.37 1005.68 1007.11 1003.67 1000.33 998.87 997.82 997.90 997.60 997.94 998.80 999.56 1000.18 1001.63 1002.84 1003.99 1005.66 1007.18 1008.11 1009.17 1010.36 1011.13 1012.04 1012.69 1013.24 1013.67 1013.94 1014.00 1014.39 1014.72 1015.06 1015.37 1015.58 1015.83 1015.93 1016.49 1016.73 1016.99 1016.85 1017.07 1017.25 1017.27 1017.46 1017.66 1017.80 1017.92 1018.00 1018.14
1007.00 1004.96 1006.59 1007.96 1003.10 999.96 998.75 999.53 999.64 997.96 997.94 998.44 999.80 1000.92 1001.72 1003.26 1004.27 1005.33 1007.37 1007.90 1008.89 1009.90 1010.79 1012.21 1012.76 1013.29 1013.79 1013.96 1014.29 1014.62 1014.81 1015.26 1015.71 1015.94 1016.23 1016.28 1016.82 1016.95 1017.21 1017.34 1017.31 1017.51 1017.55 1017.67 1017.78 1018.04 1018.27 1018.21 1018.41
1005.67 1006.25 1006.32 1006.59 1001.21 999.43 998.43 998.61 998.62 997.99 998.22 998.78 1000.33 1001.97 1002.45 1002.96 1004.50 1005.58 1006.72 1007.79 1008.75 1009.48 1011.07 1012.53 1013.05 1013.48 1014.02 1014.23 1014.39 1014.75 1015.15 1015.57 1015.90 1016.10 1016.52 1016.73 1017.12 1017.17 1017.25 1017.53 1017.64 1017.78 1017.81 1017.94 1017.94 1018.15 1018.43 1018.48 1018.61
1007.06 1007.82 1006.74 1004.45 1000.44 998.89 998.55 1000.34 1000.53 998.97 999.18 1000.05 1001.54 1003.28 1003.42 1003.44 1004.77 1005.72 1006.46 1007.39 1008.46 1009.87 1011.51 1012.64 1013.20 1013.65 1014.23 1014.40 1014.81 1015.08 1015.36 1015.65 1015.93 1016.26 1016.75 1017.08 1017.14 1017.41 1017.47 1017.75 1017.91 1017.96 1018.00 1018.24 1018.20 1018.38 1018.53 1018.72 1018.75
1007.08 1007.42 1005.17 1001.60 998.92 997.86 997.68 998.08 998.07 998.69 999.44 1003.04 1005.96 1005.44 1004.58 1004.45 1005.12 1005.90 1006.55 1007.22 1008.47 1010.23 1011.39 1012.68 1013.41 1013.88 1014.33 1014.77 1014.95 1015.28 1015.64 1015.86 1016.08 1016.43 1016.87 1017.07 1017.32 1017.51 1017.58 1017.85 1018.07 1018.11 1018.17 1018.41 1018.46 1018.55 1018.71 1018.81 1019.01
1005.72 1004.40 1001.52 999.67 999.20 997.25 997.26 996.84 997.24 998.01 999.03 1001.84 1003.70 1005.69 1005.05 1005.00 1005.46 1006.08 1006.79 1007.52 1008.85 1010.11 1011.43 1012.65 1013.26 1013.98 1014.32 1014.79 1015.16 1015.48 1015.79 1016.10 1016.20 1016.59 1016.97 1017.18 1017.47 1017.59 1017.77 1018.01 1018.20 1018.26 1018.36 1018.58 1018.67 1018.69 1018.86 1018.96 1019.07
1000.97 1000.17 998.98 997.83 997.79 997.28 997.31 996.90 997.50 997.62 998.17 999.18 1001.30 1003.04 1003.98 1004.71 1005.49 1006.38 1007.10 1007.76 1008.75 1010.05 1011.51 1012.51 1013.23 1013.77 1014.23 1014.72 1015.16 1015.56 1015.97 1016.18 1016.46 1016.83 1017.02 1017.26 1017.57 1017.68 1017.81 1018.10 1018.33 1018.38 1018.55 1018.64 1018.73 1018.84 1019.01 1019.01 1019.13
999.61 999.14 998.00 998.19 997.80 997.90 997.48 997.23 997.42 997.51 997.44 998.30 999.59 1000.40 1002.54 1004.31 1005.48 1006.40 1007.15 1007.69 1008.64 1009.60 1011.00 1012.07 1013.04 1013.68 1014.23 1014.65 1015.29 1015.71 1015.95 1016.12 1016.45 1016.81 1017.23 1017.37 1017.35 1017.50 1017.73 1017.91 1018.22 1018.47 1018.74 1018.70 1018.80 1018.95 1019.13 1019.14 1019.19
998.89 998.57 997.79 998.17 998.21 998.21 997.76 997.70 997.50 997.49 997.69 998.28 999.72 1001.63 1003.09 1004.38 1005.41 1006.22 1006.98 1007.59 1008.20 1009.27 1010.35 1011.31 1012.57 1013.63 1014.22 1014.40 1015.04 1015.39 1015.77 1016.03 1016.37 1016.58 1016.93 1017.03 1016.74 1017.15 1017.47 1017.59 1018.11 1018.41 1018.73 1018.85 1018.96 1019.05 1019.15 1019.14 1018.88
998.46 998.06 998.24 998.03 998.27 998.39 998.20 998.07 997.75 997.59 997.61 998.13 999.36 1001.47 1003.17 1004.39 1005.24 1006.08 1006.78 1007.49 1008.12 1008.70 1009.45 1010.52 1011.81 1012.95 1013.78 1014.05 1014.86 1015.33 1015.51 1015.62 1015.96 1016.25 1016.66 1016.59 1016.71 1017.29 1017.17 1017.82 1018.11 1018.24 1018.58 1018.67 1018.89 1019.07 1018.97 1018.67 1018.43
998.96 998.54 998.35 998.30 998.41 998.58 998.41 998.20 998.04 998.10 998.07 998.33 999.02 1000.77 1002.62 1003.87 1004.82 1005.70 1006.36 1007.13 1007.86 1008.59 1008.84 1009.81 1011.38 1012.48 1012.94 1013.64 1014.30 1014.67 1015.11 1015.38 1015.60 1015.78 1016.16 1016.25 1016.82 1017.22 1017.13 1017.55 1017.52 1017.76 1018.00 1017.96 1018.11 1018.31 1018.32 1018.12 1017.94
998.97 998.48 998.50 998.43 998.40 998.35 998.33 998.30 998.34 998.27 998.18 998.34 998.98 1000.58 1002.18 1003.31 1004.32 1005.19 1006.06 1006.84 1007.59 1008.33 1008.77 1009.41 1010.81 1011.87 1012.43 1013.03 1013.38 1013.74 1014.01 1014.63 1015.19 1015.65 1015.91 1016.21 1016.57 1016.88 1017.07 1017.31 1017.15 1017.26 1017.50 1017.47 1017.70 1017.68 1017.79 1017.78 1017.69
999.11 998.88 998.74 998.28 998.27 998.28 998.16 997.92 998.12 998.17 998.47 998.56 998.83 999.74 1001.29 1002.44 1003.61 1004.55 1005.47 1006.24 1007.15 1007.96 1008.65 1009.32 1010.75 1011.47 1011.82 1012.61 1012.92 1013.02 1013.19 1013.47 1014.42 1015.06 1015.63 1015.90 1016.39 1016.78 1016.94 1017.44 1017.37 1017.30 1017.14 1017.20 1017.02 1017.28 1017.49 1017.54 1017.49
999.19 998.84 997.83 997.92 998.18 997.94 998.16 997.84 998.06 998.48 998.43 998.39 998.53 999.18 1000.23 1001.50 1002.68 1003.83 1004.91 1005.75 1006.68 1007.61 1008.45 1009.20 1010.12 1010.91 1011.53 1012.15 1012.56 1012.72 1013.04 1013.34 1013.81 1014.68 1015.26 1015.79 1015.98 1016.55 1016.87 1017.11 1017.26 1017.17 1016.98 1016.92 1017.07 1017.14 1017.28 1017.51 1017.32
998.71 997.68 996.87 997.48 997.88 997.80 997.85 997.50 998.03 998.41 998.14 998.35 998.58 999.00 999.89 1000.89 1001.95 1003.22 1004.30 1005.30 1006.23 1007.26 1008.25 1008.98 1009.67 1010.69 1011.53 1012.15 1012.56 1012.74 1013.06 1013.30 1013.61 1013.75 1014.59 1015.09 1015.47 1016.03 1016.56 1016.88 1016.84 1016.79 1016.89 1016.94 1016.70 1017.06 1017.27 1017.38 1017.48
997.52 996.40 996.54 997.08 997.61 998.02 997.73 997.44 997.87 998.29 998.36 998.64 998.95 999.02 999.72 1000.36 1001.50 1002.69 1003.78 1004.93 1005.87 1006.88 1007.98 1009.01 1009.81 1010.76 1011.64 1012.26 1012.56 1012.73 1012.95 1012.97 1013.24 1013.42 1013.97 1014.70 1015.12 1015.47 1016.14 1016.27 1016.35 1016.31 1016.42 1016.62 1016.67 1016.89 1017.13 1017.10 1017.24
997.38 996.97 996.90 997.27 997.57 997.91 997.42 997.62 998.19 998.43 998.26 999.01 999.38 999.67 1000.06 1000.62 1001.48 1002.52 1003.51 1004.58 1005.68 1006.82 1007.90 1009.02 1010.06 1011.00 1011.83 1012.37 1012.67 1012.95 1012.96 1012.98 1012.94 1013.01 1013.32 1014.09 1014.68 1015.10 1015.50 1015.66 1015.73 1015.79 1015.97 1016.35 1016.40 1016.74 1016.82 1017.01 1017.10
998.58 998.09 997.66 997.32 997.95 998.28 997.70 998.07 998.41 998.71 998.73 999.63 1000.05 1000.17 1000.43 1000.78 1001.69 1002.91 1003.63 1004.57 1005.61 1006.92 1008.09 1009.10 1010.14 1011.09 1011.81 1012.27 1012.60 1012.71 1012.77 1012.82 1012.84 1012.52 1012.77 1013.58 1014.18 1014.60 1014.96 1015.45 1015.34 1015.43 1015.77 1015.96 1016.31 1016.47 1016.98 1017.11 1017.10
998.86 998.42 997.70 997.50 997.95 998.39 997.66 997.68 998.21 998.82 999.29 999.83 1000.56 1000.74 1001.11 1001.84 1002.79 1003.66 1004.24 1004.87 1005.61 1006.83 1008.07 1009.13 1009.96 1010.76 1011.42 1011.75 1012.09 1012.25 1012.42 1012.50 1012.51 1012.33 1012.06 1012.64 1013.34 1013.97 1014.48 1014.96 1015.37 1015.31 1015.64 1015.90 1016.21 1016.41 1016.79 1017.08 1017.06
998.56 998.37 997.87 997.97 997.96 997.87 997.85 997.54 998.01 998.89 999.45 1000.11 1001.17 1001.97 1002.31 1002.70 1003.30 1004.14 1004.73 1005.29 1005.70 1006.81 1007.99 1008.98 1009.72 1010.27 1010.87 1011.16 1011.62 1012.00 1012.09 1012.17 1012.19 1012.29 1012.26 1011.99 1012.50 1013.15 1013.75 1014.31 1014.87 1015.14 1015.34 1015.49 1015.86 1016.17 1016.55 1016.79 1016.99
998.20 998.50 998.81 998.76 998.49 997.55 997.59 997.75 997.46 998.43 999.04 999.77 1000.79 1001.84 1002.96 1003.97 1004.43 1004.68 1004.99 1005.44 1005.88 1006.61 1007.56 1008.36 1009.19 1009.89 1010.41 1010.79 1011.04 1011.17 1011.61 1011.72 1011.66 1011.74 1011.90 1011.66 1011.39 1011.99 1012.66 1013.76 1014.04 1014.64 1014.93 1015.09 1015.22 1015.54 1015.92 1016.29 1016.61
999.14 999.47 999.28 999.04 998.73 998.26 997.52 997.21 997.58 998.14 998.66 999.36 1000.33 1001.56 1002.77 1003.61 1004.55 1005.19 1005.59 1005.98 1006.34 1007.04 1007.23 1007.96 1008.61 1009.36 1009.83 1010.21 1010.78 1010.76 1011.07 1011.43 1011.65 1011.55 1011.25 1011.32 1011.73 1011.97 1012.27 1012.53 1013.34 1013.87 1014.16 1014.49 1014.65 1014.90 1015.03 1015.25 1015.69
999.85 999.79 999.38 998.99 998.36 997.82 997.28 997.07 997.76 998.28 998.78 999.66 1000.62 1001.71 1002.78 1003.57 1004.52 1005.60 1006.25 1006.58 1006.80 1007.24 1007.57 1007.94 1008.46 1008.87 1009.20 1009.56 1010.01 1010.41 1010.54 1011.08 1011.29 1010.99 1010.66 1011.01 1011.38 1012.09 1012.24 1011.93 1012.62 1013.01 1013.27 1013.47 1013.79 1014.08 1014.19 1014.41 1014.59
999.75 999.54 998.82 998.10 998.07 997.89 998.04 997.99 998.18 998.78 999.53 1000.14 1000.86 1001.79 1002.72 1003.30 1004.03 1004.89 1005.81 1006.52 1007.01 1007.33 1007.76 1008.09 1008.50 1008.74 1008.76 1009.08 1009.35 1009.72 1009.95 1010.26 1010.38 1010.41 1009.96 1010.38 1011.03 1010.43 1010.98 1011.06 1011.71 1012.27 1012.55 1012.75 1013.04 1013.34 1013.40 1013.67 1014.01
999.55 999.88 999.99 999.29 998.62 998.62 998.53 998.20 998.47 999.09 999.86 1000.69 1001.30 1001.93 1002.68 1003.17 1004.22 1004.91 1005.49 1006.36 1006.91 1007.31 1007.63 1007.93 1008.24 1008.65 1008.71 1008.67 1008.69 1008.93 1009.13 1009.27 1009.43 1009.55 1009.60 1009.61 1010.07 1010.05 1010.50 1010.05 1010.50 1011.11 1011.45 1011.97 1012.30 1012.64 1012.85 1012.87 1013.08
999.98 1000.31 1000.23 1000.29 1000.07 999.62 998.73 998.48 999.31 999.66 1000.20 1000.83 1001.34 1002.05 1002.83 1003.75 1004.50 1005.13 1005.65 1006.13 1006.56 1007.06 1007.34 1007.74 1007.96 1008.31 1008.40 1008.36 1008.26 1008.22 1008.22 1008.37 1008.38 1008.41 1008.70 1008.72 1008.91 1009.28 1009.25 1009.22 1009.73 1010.09 1010.15 1010.58 1011.33 1011.62 1011.94 1012.22 1012.37
1000.62 1000.86 1000.91 1000.64 1000.32 999.86 998.82 999.06 999.52 1000.07 1000.36 1000.89 1001.80 1002.43 1003.37 1004.15 1004.73 1005.30 1005.82 1006.11 1006.41 1006.75 1007.09 1007.24 1007.44 1007.71 1007.90 1007.94 1007.77 1007.70 1007.52 1007.50 1007.53 1007.74 1007.69 1007.77 1008.00 1008.11 1008.26 1008.25 1008.46 1008.91 1009.08 1009.45 1010.22 1010.52 1011.04 1011.41 1011.67
1000.23 1000.65 1000.84 1000.72 1000.91 1000.69 1000.27 999.69 1000.03 1000.54 1000.91 1001.50 1002.16 1002.80 1003.59 1004.46 1005.09 1005.59 1005.89 1006.22 1006.55 1006.75 1006.77 1006.91 1007.12 1007.28 1007.41 1007.53 1007.51 1007.38 1007.23 1007.18 1007.09 1007.01 1006.77 1006.98 1007.25 1007.40 1007.37 1007.45 1007.61 1007.85 1007.97 1008.37 1008.93 1009.41 1009.83 1010.26 1010.53
1000.20 1000.58 1001.16 1001.57 1001.74 1001.11 1000.95 1000.18 1000.24 1000.76 1001.31 1001.84 1002.23 1003.02 1003.73 1004.44 1005.34 1006.01 1006.40 1006.63 1006.74 1006.90 1007.03 1007.08 1006.96 1007.04 1007.12 1007.05 1007.03 1007.00 1006.93 1006.85 1006.65 1006.47 1006.30 1006.43 1006.45 1006.49 1006.39 1006.43 1006.36 1006.47 1006.03 1007.29 1007.64 1008.06 1008.63 1008.99 1009.25
Wind_Speed
5 13 11 10 4 8 17 19 15 13 18 16 17 16 19 16 11 12 20 23 24 21 17 16 15 14 15 20 21 19 17 17 16 17 15 17 16 15 15 15 14 14 15 14 15 15 15 13 12
7 13 6 9 7 5 12 17 13 16 18 19 21 19 21 24 23 25 18 22 25 21 17 17 16 15 15 15 18 17 18 16 15 16 15 16 14 13 12 14 13 12 12 13 13 13 13 13 12
10 13 6 8 9 11 12 36 22 17 12 20 22 17 17 19 21 20 24 23 23 20 20 16 16 16 15 15 17 17 18 16 15 15 15 15 13 13 11 11 12 10 11 12 12 11 11 12 11
5 7 4 7 13 15 15 22 20 13 13 21 23 15 20 20 23 23 27 25 20 21 20 16 17 16 15 14 15 16 17 16 14 15 13 13 12 12 11 10 10 9 10 10 11 11 10 11 10
8 2 3 5 19 9 24 35 25 6 8 17 21 18 17 23 26 22 24 22 20 22 19 16 16 15 14 14 13 15 16 14 14 14 12 11 10 10 11 9 8 10 10 8 9 9 10 10 9
6 2 9 9 11 11 15 12 11 14 11 30 33 6 15 22 23 21 19 22 24 22 20 17 16 15 14 14 13 14 15 15 15 14 12 10 9 9 9 9 10 7 8 8 8 9 9 9 7
18 4 1 14 21 17 8 10 13 12 14 12 32 7 15 20 21 19 14 22 23 21 19 15 15 14 14 13 14 14 14 15 14 12 12 12 9 9 8 8 7 8 7 7 6 8 8 9 7
5 10 9 10 6 15 10 14 12 12 10 16 15 14 19 22 22 20 15 22 22 21 18 15 13 11 11 10 12 13 13 12 12 12 12 11 10 9 8 8 7 7 7 7 7 8 8 8 7
12 7 5 7 12 13 11 10 8 4 8 13 18 16 25 25 24 20 16 14 18 19 18 17 15 12 9 9 9 10 12 13 12 10 11 9 7 8 9 9 10 7 7 7 8 7 7 8 8
9 9 15 9 7 3 9 7 4 5 7 15 19 25 25 25 22 20 18 16 15 21 19 17 17 13 10 9 9 6 8 6 7 7 8 8 7 7 9 10 13 10 8 8 8 8 8 9 6
7 12 12 11 10 7 9 7 8 10 4 11 19 24 23 23 19 19 18 17 16 15 16 19 18 18 15 9 8 4 3 4 6 8 8 7 4 3 4 4 5 5 9 6 7 6 6 9 7
6 12 12 8 10 9 10 10 9 6 9 6 17 23 21 22 20 20 17 18 17 15 13 19 20 15 15 9 9 9 8 7 6 7 8 3 3 5 4 5 6 6 6 7 8 6 8 8 8
10 10 8 10 10 8 8 8 6 6 4 3 15 21 20 19 19 19 17 17 16 16 13 15 19 16 12 10 10 11 10 10 9 9 9 5 4 3 4 3 2 3 6 5 6 4 5 2 4
13 11 12 9 7 4 6 1 8 6 5 1 4 20 20 21 20 17 17 17 17 16 14 13 21 16 12 10 9 4 5 5 9 9 9 9 5 4 3 3 3 4 4 4 5 5 3 3 5
10 13 14 7 3 3 6 7 11 1 3 4 6 9 20 19 21 18 17 15 17 16 15 14 13 13 9 6 5 4 2 3 6 8 10 10 8 7 7 4 4 6 5 4 3 4 4 4 5
15 18 14 12 1 4 9 10 10 3 1 1 5 8 9 19 20 18 16 14 15 17 15 14 14 15 10 7 5 4 4 4 4 4 10 10 10 9 6 6 7 7 5 4 4 3 3 4 4
15 10 5 8 10 3 4 3 11 7 2 2 2 4 8 11 16 15 17 15 15 14 14 11 11 14 13 9 7 6 7 5 4 5 7 10 9 9 8 6 8 6 5 5 4 3 4 2 4
12 10 8 3 7 6 9 8 12 1 7 11 8 5 7 8 5 16 15 15 14 13 13 11 9 10 11 8 7 7 6 5 7 5 8 13 9 9 7 5 5 5 4 6 4 5 5 4 4
9 7 8 1 5 8 2 1 9 2 12 11 5 6 8 7 14 12 11 12 14 14 14 12 11 10 9 7 9 9 9 8 7 6 5 13 9 10 8 7 6 5 4 4 6 3 4 3 4
9 9 12 1 6 6 9 2 10 6 7 11 7 10 10 9 15 8 6 9 12 13 13 12 11 12 11 10 9 8 8 8 9 7 6 10 12 12 10 9 9 8 6 6 6 5 4 3 5
10 10 9 9 5 10 9 13 12 10 9 11 13 10 13 10 10 10 8 8 9 12 13 12 11 11 13 12 8 7 6 6 6 8 9 9 11 11 11 11 10 6 8 8 7 7 8 6 5
10 12 4 8 9 11 5 6 15 14 15 15 17 16 14 9 8 6 8 10 11 13 12 11 13 11 11 12 9 11 9 8 8 7 9 10 15 15 14 13 11 11 5 10 9 8 8 8 7
7 7 10 10 11 12 14 8 9 12 12 12 16 15 13 11 11 9 8 7 9 3 9 10 13 13 11 12 13 9 11 8 6 6 6 6 10 13 14 15 13 14 10 8 11 11 12 9 8
10 10 12 14 14 12 15 8 5 10 10 13 14 13 10 12 12 10 8 6 6 6 4 3 3 9 12 12 14 15 11 11 10 12 9 6 3 9 13 15 14 13 13 14 11 11 13 12 10
9 13 10 9 12 1 5 2 11 14 10 13 13 12 9 5 12 13 10 7 4 4 3 4 5 4 7 13 12 14 15 13 13 13 9 6 7 7 15 16 14 13 15 14 13 11 10 10 10
11 7 7 10 12 6 9 6 7 14 14 10 7 4 4 7 11 6 5 6 3 1 3 4 6 6 6 7 9 12 14 10 12 13 11 8 8 9 13 15 17 18 16 15 13 11 10 11 11
7 5 12 9 11 12 13 7 11 12 13 10 8 8 7 8 7 5 3 3 3 4 4 4 4 6 8 9 7 8 11 14 13 14 12 12 11 11 15 15 18 20 18 16 15 12 13 12 12
9 10 9 9 11 12 7 9 13 9 7 10 8 5 12 10 5 4 7 5 4 5 6 7 7 6 6 7 8 8 9 7 10 13 15 15 16 16 15 17 19 19 18 17 16 14 14 14 11
9 11 8 7 8 8 9 3 9 7 7 5 5 3 6 4 5 8 9 8 7 8 8 6 7 6 5 6 7 7 8 9 9 11 12 15 15 16 18 19 15 18 18 18 18 16 16 17 13
8 12 12 9 12 9 8 11 9 9 4 2 4 7 7 6 6 7 8 9 8 7 9 11 7 7 7 7 7 9 9 10 11 11 11 12 15 16 18 16 17 14 19 17 18 19 17 17 15
Wind_Direction
254 256 255 271 240 267 87 78 76 91 78 43 75 79 63 52 111 100 132 118 124 127 132 138 144 128 132 134 137 129 121 124 117 110 111 110 111 109 112 109 105 107 106 100 98 97 97 97 98
254 254 34 347 256 103 85 99 90 70 94 86 50 67 69 81 96 113 116 129 130 131 144 140 146 137 134 127 127 125 126 127 119 116 109 112 117 115 113 112 111 111 110 108 103 97 99 99 99
242 261 111 211 242 59 68 76 304 86 102 111 89 59 98 114 127 117 134 138 129 146 129 130 142 135 134 128 130 128 123 126 126 124 116 115 120 120 114 115 117 115 112 113 108 103 101 100 106
269 6 102 242 65 92 71 62 8 86 62 83 98 82 90 105 113 132 133 131 145 128 122 131 141 138 137 136 129 128 130 135 132 129 128 123 124 125 120 115 122 119 114 112 110 112 108 107 113
50 75 252 266 88 43 74 91 266 62 74 80 87 105 105 106 122 138 133 137 136 116 129 135 134 134 141 140 139 138 136 137 136 134 138 139 132 129 128 130 124 125 117 115 115 115 117 115 118
337 196 219 193 85 62 56 127 160 80 46 87 37 359 107 113 134 140 137 138 123 128 135 140 136 138 144 144 145 141 145 147 145 145 148 148 147 148 140 138 137 133 126 124 120 121 121 124 129
188 269 60 34 338 71 20 52 20 75 44 93 153 181 127 134 138 138 149 126 124 135 128 137 141 146 149 146 147 150 153 154 152 155 161 161 161 165 159 156 156 143 138 144 140 131 135 134 142
269 292 4 37 108 54 47 61 59 7 86 131 130 153 148 139 143 140 153 135 134 133 140 142 142 150 150 154 152 154 156 155 155 160 162 168 176 180 180 164 178 160 140 154 149 143 148 147 159
296 270 35 24 14 13 13 1 70 265 353 92 72 115 133 143 145 147 154 156 137 139 146 150 154 153 148 160 162 163 161 156 162 165 171 176 191 186 194 196 160 163 167 163 153 154 167 165 185
279 273 42 52 347 303 348 357 329 354 347 95 96 105 128 146 150 152 160 161 158 148 153 155 149 158 154 175 155 172 165 171 185 171 172 211 213 176 192 168 162 164 177 168 165 169 180 192 189
297 327 6 345 39 349 322 315 6 335 316 50 118 126 141 149 157 157 169 165 164 164 163 158 150 158 167 173 161 163 179 180 200 183 189 202 108 148 134 136 164 163 181 182 180 182 210 208 238
307 314 335 335 350 320 295 302 327 313 328 0 116 133 147 156 165 166 174 165 170 180 177 159 142 158 173 171 169 174 181 193 193 187 198 192 152 187 163 173 174 180 179 213 188 184 214 219 223
281 284 333 323 301 307 308 274 274 300 323 121 111 132 153 163 170 167 175 169 176 173 186 149 149 166 175 162 181 183 189 186 193 184 187 160 164 187 147 209 291 206 183 204 196 201 206 254 245
302 315 299 272 36 261 296 206 199 91 18 249 142 153 159 168 172 171 176 174 176 173 183 165 154 169 171 186 185 164 188 159 155 172 176 172 170 168 166 194 232 277 222 246 194 170 163 212 243
312 280 260 145 89 22 307 169 89 78 183 181 192 145 164 167 171 176 176 180 174 172 177 170 157 157 153 166 143 146 225 151 153 176 168 180 171 173 179 195 207 236 265 228 229 149 178 212 258
252 252 241 131 341 124 276 140 135 116 332 349 92 114 137 163 173 176 172 176 169 167 177 169 168 160 168 169 159 184 235 183 201 174 161 178 168 168 175 199 215 214 227 220 192 211 223 195 213
236 259 90 126 108 307 295 51 75 19 161 25 263 137 142 162 161 162 169 173 165 163 163 164 168 161 169 169 177 198 210 191 228 175 159 177 184 174 198 206 216 219 188 182 203 208 212 226 212
355 360 20 156 87 336 258 58 77 309 98 62 37 4 107 133 170 149 171 170 162 150 150 150 158 153 164 171 182 199 216 220 212 207 177 175 181 189 207 228 232 206 194 195 184 198 197 219 203
323 317 299 190 76 292 45 162 103 345 95 95 72 53 74 103 118 132 162 161 153 148 149 152 161 156 169 186 195 204 214 200 222 218 194 164 181 193 191 221 236 215 223 216 197 183 221 264 276
306 289 267 220 110 280 279 169 122 135 93 101 76 47 125 102 108 123 153 166 159 149 148 158 167 166 186 198 197 210 199 215 208 215 197 176 181 185 201 206 241 207 213 239 185 181 209 227 254
254 260 316 348 338 253 252 240 146 140 152 123 106 68 49 86 113 125 160 164 173 143 149 163 180 185 187 201 207 214 237 224 208 210 213 184 181 190 196 203 225 235 209 226 194 191 202 217 231
284 16 359 292 280 297 173 105 169 161 163 158 140 132 115 99 89 97 137 172 190 156 170 171 180 192 199 205 232 203 222 225 227 200 217 201 193 190 188 211 212 230 223 231 196 202 201 207 221
0 351 312 301 289 275 267 244 122 171 165 154 119 105 103 114 115 111 93 62 53 105 172 180 173 189 199 203 219 235 211 221 245 268 224 215 193 203 200 192 210 215 224 235 231 203 201 206 217
327 294 263 245 249 241 229 259 117 120 120 125 115 107 117 126 121 120 119 132 146 146 134 98 177 193 201 206 209 226 230 212 226 237 226 215 191 198 214 205 211 216 217 222 231 219 202 207 206
239 253 277 261 226 133 328 318 87 112 85 62 105 122 129 161 139 143 139 127 136 121 123 192 160 231 228 211 220 216 230 231 232 242 239 191 206 221 206 205 210 215 221 220 223 237 220 203 215
311 2 309 312 311 327 335 248 104 116 115 110 106 124 127 141 87 59 66 123 148 144 191 194 176 206 232 249 229 221 231 226 230 230 238 236 207 229 256 205 207 217 213 218 222 222 227 212 212
354 239 343 317 287 270 265 105 134 137 140 138 129 87 78 65 33 7 336 295 192 234 241 279 216 213 231 235 240 245 230 225 236 233 223 232 221 218 242 243 211 214 211 209 215 222 222 221 218
256 318 297 269 268 272 304 351 108 132 161 137 139 95 60 36 6 321 295 301 329 335 300 242 229 233 245 262 251 243 253 261 243 231 234 227 230 230 240 226 223 210 210 207 211 215 223 222 220
175 232 222 302 312 316 298 58 106 84 70 61 50 345 75 36 355 341 346 338 352 311 300 315 300 264 246 257 268 283 272 257 267 252 240 233 231 229 234 239 243 216 208 205 209 213 214 216 220
285 305 306 291 281 279 311 290 96 128 129 303 303 33 3 71 27 342 333 334 307 327 319 317 277 275 260 253 251 254 256 260 254 251 248 249 238 235 237 238 239 229 222 221 207 210 216 219 208